AMAZONAS 2

Last updated on Sun Jun 21 2026 00:03:04 GMT+0000 (Coordinated Universal Time)

1 35942U 09054A 26171.37777042 -.00000264 00000+0 00000+0 0 9996 2 35942 1.8249 83.0119 0003227 7.8469 241.7331 1.00272500 61217
UTC large
Height (km)
Speed (km/s)
/
Latitude / Longitude
Inclination (degrees)
Orbital Period (minutes)
Azimuth
Elevation
Range (km)
Doppler Factor

Next 0 passes for location: London (51.5072 / 0.1276)

No passes found over London.
AMAZONAS 2